Flag for Germany Weather past 2 weeks in Sonneberg, Thuringia, Germany

Now
46 °F

Sunny.


Feels Like: 41 °F
Forecast: 41 / 44 °F
Wind: 10 mph from Southwest

Location: Hof Airport

Current Time: Mar 28, 2015 at 6:04:17 PM

Latest Report: Mar 28, 2015 at 5:20 PM


Visibility: 10 mi

Pressure: 29.98 "Hg

Humidity: 46%

Dew point: 27 °F

Location of SonnebergLocation

Historic Weather in Sonneberg — Graph

°F

Sonneberg temperature yesterday

Maximum temperature yesterday: 46 °F (at 2:20 PM)
Minimum temperature yesterday: 37 °F (at 7:50 AM)
Average temperature yesterday: 41 °F

Past Weeks' High & Low Weather Summary

 TemperatureHumidityPressure
High61 °F (Mar 25, 1:50 PM)100% (Mar 14, 9:50 AM)30.30 "Hg (Mar 14, 9:50 AM)
Low27 °F (Mar 23, 5:50 AM)19% (Mar 20, 3:50 PM)29.62 "Hg (Mar 25, 3:20 PM)
Average43 °F66%30.08 "Hg
* Reported Mar 13 4:20 PM — Mar 28 4:50 PM, Sonneberg, Weather by CustomWeather, © 2015

Note: Actual official high and low records may vary slightly from our data, if they occured in-between our weather recording intervals... More about our weather records

Advertising

Sonneberg weather history for previous 24 hours

 ConditionsComfort  
Time TempWeatherWind HumidityBarometerVisibility
4:50 PM
Sat, Mar 28
46 °FSunny.12 mph46%30.01 "Hg10 mi
4:20 PM46 °FSunny.13 mph46%30.01 "Hg10 mi
3:50 PM46 °FPassing clouds.12 mph46%30.01 "HgN/A
3:20 PM46 °FPassing clouds.12 mph50%30.04 "HgN/A
2:50 PM48 °FScattered clouds.13 mph46%30.04 "HgN/A
2:20 PM46 °FScattered clouds.13 mph50%30.07 "HgN/A
1:50 PM46 °FScattered clouds.13 mph46%30.07 "HgN/A
1:20 PM45 °FPassing clouds.12 mph46%30.07 "HgN/A
12:50 PM45 °FPassing clouds.12 mph49%30.09 "HgN/A
12:20 PM45 °FPartly sunny.14 mph49%30.09 "HgN/A
11:50 AM43 °FScattered clouds.12 mph49%30.12 "HgN/A
11:20 AM43 °FPartly sunny.10 mph49%30.12 "HgN/A
10:50 AM43 °FPartly sunny.10 mph46%30.12 "HgN/A
10:20 AM41 °FPartly sunny.12 mph49%30.15 "HgN/A
9:50 AM41 °FPartly sunny.12 mph49%30.15 "HgN/A
9:20 AM41 °FScattered clouds.9 mph49%30.15 "HgN/A
8:50 AM39 °FPartly sunny.8 mph56%30.15 "HgN/A
Weather by CustomWeather, © 2015

See weather overviewHow to use our weather pages